Time,TemperatureF,DewpointF,PressureIn,WindDirection,WindDirectionDegrees,WindSpeedMPH,WindSpeedGustMPH,Humidity,HourlyPrecipIn,Conditions,Clouds,dailyrainin,SoftwareType,DateUTC
2013-02-21 00:00:00,43.1,36.0,29.95,SW,229,0.0,3.0,76,0.00,,,0.00,Wunderground v.1.15,2013-02-21 05:00:00,
2013-02-21 00:05:00,42.8,35.8,29.95,SW,229,0.0,3.0,76,0.00,,,0.00,Wunderground v.1.15,2013-02-21 05:05:00,
2013-02-21 00:11:00,42.5,35.8,29.95,SW,229,0.0,3.0,77,0.00,,,0.00,Wunderground v.1.15,2013-02-21 05:11:00,
2013-02-21 00:13:00,42.3,35.6,29.95,SW,229,0.0,3.0,77,0.00,,,0.00,Wunderground v.1.15,2013-02-21 05:13:00,
2013-02-21 00:19:00,42.1,36.1,29.95,SW,229,0.0,3.0,79,0.00,,,0.00,Wunderground v.1.15,2013-02-21 05:19:00,
2013-02-21 00:25:00,41.8,35.8,29.95,SW,229,0.0,3.0,79,0.00,,,0.00,Wunderground v.1.15,2013-02-21 05:25:00,
2013-02-21 00:31:00,41.3,35.3,29.95,SW,229,0.0,3.0,79,0.00,,,0.00,Wunderground v.1.15,2013-02-21 05:31:00,
2013-02-21 00:37:00,41.1,35.4,29.95,SW,229,0.0,3.0,80,0.00,,,0.00,Wunderground v.1.15,2013-02-21 05:37:00,
2013-02-21 00:43:00,40.9,35.5,29.95,SW,229,0.0,3.0,81,0.00,,,0.00,Wunderground v.1.15,2013-02-21 05:43:00,
2013-02-21 00:49:00,40.6,35.5,29.95,SW,229,0.0,3.0,82,0.00,,,0.00,Wunderground v.1.15,2013-02-21 05:49:00,
2013-02-21 00:54:00,40.5,35.4,29.95,SW,229,0.0,3.0,82,0.00,,,0.00,Wunderground v.1.15,2013-02-21 05:54:00,
2013-02-21 00:59:00,40.2,35.4,29.95,SW,229,0.0,3.0,83,0.00,,,0.00,Wunderground v.1.15,2013-02-21 05:59:00,
2013-02-21 01:05:00,40.1,35.4,29.95,SW,229,0.0,3.0,83,0.00,,,0.00,Wunderground v.1.15,2013-02-21 06:05:00,
2013-02-21 01:10:00,39.8,35.1,29.95,SW,229,0.0,3.0,83,0.00,,,0.00,Wunderground v.1.15,2013-02-21 06:10:00,
2013-02-21 01:16:00,39.6,35.2,29.94,SW,229,0.0,3.0,84,0.00,,,0.00,Wunderground v.1.15,2013-02-21 06:16:00,
2013-02-21 01:22:00,39.3,34.9,29.94,SW,229,0.0,3.0,84,0.00,,,0.00,Wunderground v.1.15,2013-02-21 06:22:00,
2013-02-21 01:28:00,39.1,34.7,29.95,SW,229,0.0,3.0,84,0.00,,,0.00,Wunderground v.1.15,2013-02-21 06:28:00,
2013-02-21 01:34:00,38.9,34.8,29.95,SW,229,0.0,3.0,85,0.00,,,0.00,Wunderground v.1.15,2013-02-21 06:34:00,
2013-02-21 01:39:00,38.8,34.7,29.95,SW,229,0.0,3.0,85,0.00,,,0.00,Wunderground v.1.15,2013-02-21 06:39:00,
2013-02-21 01:44:00,38.6,34.8,29.96,SW,229,0.0,3.0,86,0.00,,,0.00,Wunderground v.1.15,2013-02-21 06:44:00,
2013-02-21 01:49:00,38.6,34.8,29.96,SW,229,0.0,3.0,86,0.00,,,0.00,Wunderground v.1.15,2013-02-21 06:49:00,
2013-02-21 01:55:00,38.5,35.0,29.96,SW,229,0.0,3.0,87,0.00,,,0.00,Wunderground v.1.15,2013-02-21 06:55:00,
2013-02-21 02:01:00,38.3,34.8,29.95,SW,229,0.0,3.0,87,0.00,,,0.00,Wunderground v.1.15,2013-02-21 07:01:00,
2013-02-21 02:07:00,38.2,34.7,29.95,SW,229,0.0,3.0,87,0.00,,,0.00,Wunderground v.1.15,2013-02-21 07:07:00,
2013-02-21 02:13:00,38.0,34.5,29.95,SW,229,0.0,3.0,87,0.00,,,0.00,Wunderground v.1.15,2013-02-21 07:13:00,
2013-02-21 02:19:00,37.8,34.3,29.95,SW,229,0.0,3.0,87,0.00,,,0.00,Wunderground v.1.15,2013-02-21 07:19:00,
2013-02-21 02:25:00,37.6,34.1,29.95,SW,229,0.0,3.0,87,0.00,,,0.00,Wunderground v.1.15,2013-02-21 07:25:00,
2013-02-21 02:31:00,37.6,34.4,29.95,SW,229,0.0,3.0,88,0.00,,,0.00,Wunderground v.1.15,2013-02-21 07:31:00,
2013-02-21 02:37:00,37.5,34.3,29.95,SW,229,0.0,3.0,88,0.00,,,0.00,Wunderground v.1.15,2013-02-21 07:37:00,
2013-02-21 02:42:00,37.5,34.3,29.95,SW,229,0.0,3.0,88,0.00,,,0.00,Wunderground v.1.15,2013-02-21 07:42:00,
2013-02-21 02:48:00,37.5,34.6,29.95,SW,229,0.0,3.0,89,0.00,,,0.00,Wunderground v.1.15,2013-02-21 07:48:00,
2013-02-21 02:53:00,37.3,34.4,29.95,SW,229,0.0,3.0,89,0.00,,,0.00,Wunderground v.1.15,2013-02-21 07:53:00,
2013-02-21 02:59:00,37.3,34.4,29.95,SW,229,0.0,3.0,89,0.00,,,0.00,Wunderground v.1.15,2013-02-21 07:59:00,
2013-02-21 03:05:00,37.3,34.4,29.95,SW,229,0.0,3.0,89,0.00,,,0.00,Wunderground v.1.15,2013-02-21 08:05:00,
2013-02-21 03:11:00,37.3,34.4,29.95,SW,229,0.0,3.0,89,0.00,,,0.00,Wunderground v.1.15,2013-02-21 08:11:00,
2013-02-21 03:17:00,37.3,34.4,29.94,SW,229,0.0,3.0,89,0.00,,,0.00,Wunderground v.1.15,2013-02-21 08:17:00,
2013-02-21 03:23:00,37.3,34.4,29.94,SW,229,0.0,3.0,89,0.00,,,0.00,Wunderground v.1.15,2013-02-21 08:23:00,
2013-02-21 03:29:00,37.3,34.4,29.94,SW,229,0.0,3.0,89,0.00,,,0.00,Wunderground v.1.15,2013-02-21 08:29:00,
2013-02-21 03:35:00,37.2,34.3,29.94,SW,229,0.0,3.0,89,0.00,,,0.00,Wunderground v.1.15,2013-02-21 08:35:00,
2013-02-21 03:41:00,37.0,34.1,29.94,SW,229,0.0,3.0,89,0.00,,,0.00,Wunderground v.1.15,2013-02-21 08:41:00,
2013-02-21 03:47:00,37.0,34.1,29.95,SW,229,0.0,3.0,89,0.00,,,0.00,Wunderground v.1.15,2013-02-21 08:47:00,
2013-02-21 03:53:00,36.9,34.2,29.95,SW,229,0.0,3.0,90,0.00,,,0.00,Wunderground v.1.15,2013-02-21 08:53:00,
2013-02-21 03:59:00,36.9,34.2,29.95,SW,229,0.0,3.0,90,0.00,,,0.00,Wunderground v.1.15,2013-02-21 08:59:00,
2013-02-21 04:05:00,36.9,34.2,29.95,SW,229,0.0,3.0,90,0.00,,,0.00,Wunderground v.1.15,2013-02-21 09:05:00,
2013-02-21 04:11:00,36.9,34.2,29.95,NE,35,1.0,3.0,90,0.00,,,0.00,Wunderground v.1.15,2013-02-21 09:11:00,
2013-02-21 04:17:00,36.9,34.5,29.96,NE,35,1.0,3.0,91,0.00,,,0.00,Wunderground v.1.15,2013-02-21 09:17:00,
2013-02-21 04:23:00,37.0,34.6,29.96,NE,35,0.0,3.0,91,0.00,,,0.00,Wunderground v.1.15,2013-02-21 09:23:00,
2013-02-21 04:29:00,37.2,34.5,29.97,NE,35,0.0,3.0,90,0.00,,,0.00,Wunderground v.1.15,2013-02-21 09:29:00,
2013-02-21 04:35:00,37.3,34.6,29.97,NE,35,0.0,3.0,90,0.00,,,0.00,Wunderground v.1.15,2013-02-21 09:35:00,
2013-02-21 04:41:00,37.3,34.6,29.97,NE,35,0.0,3.0,90,0.00,,,0.00,Wunderground v.1.15,2013-02-21 09:41:00,
2013-02-21 04:47:00,37.2,34.5,29.97,NE,35,0.0,3.0,90,0.00,,,0.00,Wunderground v.1.15,2013-02-21 09:47:00,
2013-02-21 04:52:00,37.2,34.5,29.97,NE,36,0.0,3.0,90,0.00,,,0.00,Wunderground v.1.15,2013-02-21 09:52:00,
2013-02-21 04:58:00,37.2,34.5,29.97,NNE,26,0.0,3.0,90,0.00,,,0.00,Wunderground v.1.15,2013-02-21 09:58:00,
2013-02-21 05:04:00,37.0,34.1,29.97,ENE,61,1.0,3.0,89,0.00,,,0.00,Wunderground v.1.15,2013-02-21 10:04:00,
2013-02-21 05:10:00,37.0,34.1,29.97,NE,38,1.0,3.0,89,0.00,,,0.00,Wunderground v.1.15,2013-02-21 10:10:00,
2013-02-21 05:16:00,37.0,33.8,29.97,ENE,74,1.0,3.0,88,0.00,,,0.00,Wunderground v.1.15,2013-02-21 10:16:00,
2013-02-21 05:22:00,37.0,33.5,29.97,ENE,58,1.0,1.0,87,0.00,,,0.00,Wunderground v.1.15,2013-02-21 10:22:00,
2013-02-21 05:28:00,37.0,33.2,29.98,North,355,1.0,3.0,86,0.00,,,0.00,Wunderground v.1.15,2013-02-21 10:28:00,
2013-02-21 05:34:00,36.9,32.8,29.98,ENE,59,1.0,3.0,85,0.00,,,0.00,Wunderground v.1.15,2013-02-21 10:34:00,
2013-02-21 05:40:00,36.8,32.4,29.98,ENE,60,1.0,3.0,84,0.00,,,0.00,Wunderground v.1.15,2013-02-21 10:40:00,
2013-02-21 05:46:00,36.6,31.6,29.98,ENE,70,1.0,3.0,82,0.00,,,0.00,Wunderground v.1.15,2013-02-21 10:46:00,
2013-02-21 05:52:00,36.5,31.5,29.98,ENE,70,1.0,3.0,82,0.00,,,0.00,Wunderground v.1.15,2013-02-21 10:52:00,
2013-02-21 05:58:00,36.3,31.0,30.00,ENE,70,0.0,3.0,81,0.00,,,0.00,Wunderground v.1.15,2013-02-21 10:58:00,
2013-02-21 06:04:00,36.2,30.3,30.00,East,86,0.0,3.0,79,0.00,,,0.00,Wunderground v.1.15,2013-02-21 11:04:00,
2013-02-21 06:10:00,36.0,29.5,30.00,East,86,1.0,3.0,77,0.00,,,0.00,Wunderground v.1.15,2013-02-21 11:10:00,
2013-02-21 06:16:00,35.9,28.7,30.00,East,84,1.0,3.0,75,0.00,,,0.00,Wunderground v.1.15,2013-02-21 11:16:00,
2013-02-21 06:22:00,35.9,28.7,30.00,ENE,58,1.0,1.0,75,0.00,,,0.00,Wunderground v.1.15,2013-02-21 11:22:00,
2013-02-21 06:28:00,35.8,28.6,30.00,NE,39,1.0,3.0,75,0.00,,,0.00,Wunderground v.1.15,2013-02-21 11:28:00,
2013-02-21 06:34:00,35.6,28.5,30.00,ENE,78,0.0,3.0,75,0.00,,,0.00,Wunderground v.1.15,2013-02-21 11:34:00,
2013-02-21 06:40:00,35.5,27.7,30.00,ENE,78,0.0,3.0,73,0.00,,,0.00,Wunderground v.1.15,2013-02-21 11:40:00,
2013-02-21 06:46:00,35.5,27.4,30.01,East,82,0.0,3.0,72,0.00,,,0.00,Wunderground v.1.15,2013-02-21 11:46:00,
2013-02-21 06:51:00,35.3,27.5,30.01,East,85,0.0,3.0,73,0.00,,,0.00,Wunderground v.1.15,2013-02-21 11:51:00,
2013-02-21 06:57:00,35.3,27.2,30.01,East,86,1.0,5.0,72,0.00,,,0.00,Wunderground v.1.15,2013-02-21 11:57:00,
2013-02-21 07:03:00,35.3,26.5,30.01,NE,41,2.0,3.0,70,0.00,,,0.00,Wunderground v.1.15,2013-02-21 12:03:00,
2013-02-21 07:09:00,35.3,26.8,30.01,ENE,62,2.0,4.0,71,0.00,,,0.00,Wunderground v.1.15,2013-02-21 12:09:00,
2013-02-21 07:15:00,35.3,26.1,30.01,ENE,64,2.0,7.0,69,0.00,,,0.00,Wunderground v.1.15,2013-02-21 12:15:00,
2013-02-21 07:21:00,35.5,25.3,30.01,East,88,2.0,7.0,66,0.00,,,0.00,Wunderground v.1.15,2013-02-21 12:21:00,
2013-02-21 07:27:00,35.6,25.0,30.01,ENE,74,3.0,8.0,65,0.00,,,0.00,Wunderground v.1.15,2013-02-21 12:27:00,
2013-02-21 07:33:00,35.9,24.5,30.01,ESE,103,3.0,3.0,63,0.00,,,0.00,Wunderground v.1.15,2013-02-21 12:33:00,
2013-02-21 07:39:00,36.2,25.6,30.01,ESE,121,2.0,3.0,65,0.00,,,0.00,Wunderground v.1.15,2013-02-21 12:39:00,
2013-02-21 07:45:00,36.3,25.7,30.02,ESE,105,1.0,3.0,65,0.00,,,0.00,Wunderground v.1.15,2013-02-21 12:45:00,
2013-02-21 07:51:00,36.6,24.8,30.02,NE,53,1.0,4.0,62,0.00,,,0.00,Wunderground v.1.15,2013-02-21 12:51:00,
2013-02-21 07:57:00,36.9,24.3,30.02,ENE,69,1.0,5.0,60,0.00,,,0.00,Wunderground v.1.15,2013-02-21 12:57:00,
2013-02-21 08:02:00,37.3,24.3,30.03,East,90,2.0,5.0,59,0.00,,,0.00,Wunderground v.1.15,2013-02-21 13:02:00,
2013-02-21 08:07:00,37.9,23.6,30.03,NNE,24,3.0,7.0,56,0.00,,,0.00,Wunderground v.1.15,2013-02-21 13:07:00,
2013-02-21 08:13:00,38.5,23.3,30.03,East,83,3.0,5.0,54,0.00,,,0.00,Wunderground v.1.15,2013-02-21 13:13:00,
2013-02-21 08:19:00,39.3,23.1,30.03,East,84,4.0,7.0,52,0.00,,,0.00,Wunderground v.1.15,2013-02-21 13:19:00,
2013-02-21 08:25:00,40.2,23.5,30.03,East,82,3.0,4.0,51,0.00,,,0.00,Wunderground v.1.15,2013-02-21 13:25:00,
2013-02-21 08:31:00,40.8,24.1,30.05,SE,136,2.0,5.0,51,0.00,,,0.00,Wunderground v.1.15,2013-02-21 13:31:00,
2013-02-21 08:37:00,41.1,23.4,30.05,East,90,2.0,4.0,49,0.00,,,0.00,Wunderground v.1.15,2013-02-21 13:37:00,
2013-02-21 08:43:00,41.2,22.0,30.05,ENE,69,4.0,6.0,46,0.00,,,0.00,Wunderground v.1.15,2013-02-21 13:43:00,
2013-02-21 08:49:00,41.5,22.2,30.05,East,83,3.0,6.0,46,0.00,,,0.00,Wunderground v.1.15,2013-02-21 13:49:00,
2013-02-21 08:55:00,42.2,22.4,30.05,ENE,65,3.0,3.0,45,0.00,,,0.00,Wunderground v.1.15,2013-02-21 13:55:00,
2013-02-21 09:00:00,42.8,21.8,30.04,NNE,32,3.0,6.0,43,0.00,,,0.00,Wunderground v.1.15,2013-02-21 14:00:00,
2013-02-21 09:06:00,43.2,23.3,30.04,ESE,109,2.0,5.0,45,0.00,,,0.00,Wunderground v.1.15,2013-02-21 14:06:00,
2013-02-21 09:11:00,43.9,23.9,30.04,East,95,2.0,5.0,45,0.00,,,0.00,Wunderground v.1.15,2013-02-21 14:11:00,
2013-02-21 09:17:00,44.5,22.8,30.05,East,93,3.0,10.0,42,0.00,,,0.00,Wunderground v.1.15,2013-02-21 14:17:00,
2013-02-21 09:23:00,44.8,21.3,30.05,ESE,103,3.0,3.0,39,0.00,,,0.00,Wunderground v.1.15,2013-02-21 14:23:00,
2013-02-21 09:29:00,45.2,22.3,30.05,East,95,3.0,5.0,40,0.00,,,0.00,Wunderground v.1.15,2013-02-21 14:29:00,
2013-02-21 09:35:00,45.7,22.7,30.05,ESE,118,2.0,4.0,40,0.00,,,0.00,Wunderground v.1.15,2013-02-21 14:35:00,
2013-02-21 09:41:00,46.1,21.9,30.05,ENE,65,3.0,5.0,38,0.00,,,0.00,Wunderground v.1.15,2013-02-21 14:41:00,
2013-02-21 09:47:00,46.7,22.4,30.05,ENE,67,3.0,5.0,38,0.00,,,0.00,Wunderground v.1.15,2013-02-21 14:47:00,
2013-02-21 09:53:00,47.1,21.5,30.05,ENE,71,2.0,4.0,36,0.00,,,0.00,Wunderground v.1.15,2013-02-21 14:53:00,
2013-02-21 09:59:00,47.4,22.4,30.05,ENE,74,2.0,7.0,37,0.00,,,0.00,Wunderground v.1.15,2013-02-21 14:59:00,
2013-02-21 10:05:00,47.9,22.8,30.05,ESE,117,3.0,4.0,37,0.00,,,0.00,Wunderground v.1.15,2013-02-21 15:05:00,
2013-02-21 10:10:00,48.2,22.5,30.05,NE,46,2.0,4.0,36,0.00,,,0.00,Wunderground v.1.15,2013-02-21 15:10:00,
2013-02-21 10:15:00,48.8,23.0,30.05,SE,131,1.0,4.0,36,0.00,,,0.00,Wunderground v.1.15,2013-02-21 15:15:00,
2013-02-21 10:21:00,48.9,23.7,30.05,NE,41,1.0,4.0,37,0.00,,,0.00,Wunderground v.1.15,2013-02-21 15:21:00,
2013-02-21 10:27:00,48.8,22.3,30.05,NNE,14,1.0,3.0,35,0.00,,,0.00,Wunderground v.1.15,2013-02-21 15:27:00,
2013-02-21 10:33:00,49.1,23.3,30.05,WNW,296,0.0,3.0,36,0.00,,,0.00,Wunderground v.1.15,2013-02-21 15:33:00,
2013-02-21 10:39:00,49.5,23.6,30.05,NE,46,0.0,3.0,36,0.00,,,0.00,Wunderground v.1.15,2013-02-21 15:39:00,
2013-02-21 10:45:00,49.8,23.9,30.05,NE,51,1.0,4.0,36,0.00,,,0.00,Wunderground v.1.15,2013-02-21 15:45:00,
2013-02-21 10:51:00,50.2,22.9,30.05,North,360,1.0,4.0,34,0.00,,,0.00,Wunderground v.1.15,2013-02-21 15:51:00,
2013-02-21 10:57:00,50.4,23.7,30.05,ESE,106,1.0,3.0,35,0.00,,,0.00,Wunderground v.1.15,2013-02-21 15:57:00,
2013-02-21 11:02:00,51.0,23.6,30.05,SE,127,1.0,1.0,34,0.00,,,0.00,Wunderground v.1.15,2013-02-21 16:02:00,
2013-02-21 11:07:00,51.7,24.2,30.05,SE,125,1.0,5.0,34,0.00,,,0.00,Wunderground v.1.15,2013-02-21 16:07:00,
2013-02-21 11:12:00,52.3,23.3,30.05,SE,125,2.0,3.0,32,0.00,,,0.00,Wunderground v.1.15,2013-02-21 16:12:00,
2013-02-21 11:18:00,52.8,23.0,30.05,North,11,2.0,4.0,31,0.00,,,0.00,Wunderground v.1.15,2013-02-21 16:18:00,
2013-02-21 11:24:00,52.6,22.0,30.05,North,9,1.0,3.0,30,0.00,,,0.00,Wunderground v.1.15,2013-02-21 16:24:00,
2013-02-21 11:29:00,52.5,23.5,30.05,ENE,57,0.0,3.0,32,0.00,,,0.00,Wunderground v.1.15,2013-02-21 16:29:00,
2013-02-21 11:35:00,52.9,24.5,30.05,NE,41,1.0,3.0,33,0.00,,,0.00,Wunderground v.1.15,2013-02-21 16:35:00,
2013-02-21 11:40:00,53.3,23.4,30.05,NNW,329,1.0,3.0,31,0.00,,,0.00,Wunderground v.1.15,2013-02-21 16:40:00,
2013-02-21 11:45:00,53.5,24.3,30.04,NNW,329,1.0,3.0,32,0.00,,,0.00,Wunderground v.1.15,2013-02-21 16:45:00,
2013-02-21 11:51:00,54.1,25.6,30.04,NNE,26,0.0,3.0,33,0.00,,,0.00,Wunderground v.1.15,2013-02-21 16:51:00,
2013-02-21 11:57:00,55.1,25.0,30.04,SE,124,1.0,4.0,31,0.00,,,0.00,Wunderground v.1.15,2013-02-21 16:57:00,
2013-02-21 12:03:00,55.9,26.4,30.03,NNE,23,1.0,3.0,32,0.00,,,0.00,Wunderground v.1.15,2013-02-21 17:03:00,
2013-02-21 12:09:00,56.7,26.4,30.03,ESE,110,1.0,3.0,31,0.00,,,0.00,Wunderground v.1.15,2013-02-21 17:09:00,
2013-02-21 12:14:00,57.0,24.2,30.03,NW,325,1.0,4.0,28,0.00,,,0.00,Wunderground v.1.15,2013-02-21 17:14:00,
2013-02-21 12:20:00,56.2,25.1,30.03,NW,316,2.0,4.0,30,0.00,,,0.00,Wunderground v.1.15,2013-02-21 17:20:00,
2013-02-21 12:26:00,56.0,28.0,30.03,North,360,1.0,3.0,34,0.00,,,0.00,Wunderground v.1.15,2013-02-21 17:26:00,
2013-02-21 12:32:00,56.9,25.7,30.02,ENE,67,1.0,3.0,30,0.00,,,0.00,Wunderground v.1.15,2013-02-21 17:32:00,
2013-02-21 12:38:00,56.7,24.8,30.02,ESE,121,0.0,3.0,29,0.00,,,0.00,Wunderground v.1.15,2013-02-21 17:38:00,
2013-02-21 12:44:00,57.5,27.1,30.01,SE,140,0.0,3.0,31,0.00,,,0.00,Wunderground v.1.15,2013-02-21 17:44:00,
2013-02-21 12:50:00,58.4,27.9,30.01,SE,134,1.0,3.0,31,0.00,,,0.00,Wunderground v.1.15,2013-02-21 17:50:00,
2013-02-21 12:56:00,59.0,29.2,30.01,SSE,155,1.0,4.0,32,0.00,,,0.00,Wunderground v.1.15,2013-02-21 17:56:00,
2013-02-21 13:02:00,59.0,29.9,30.00,ESE,122,2.0,2.0,33,0.00,,,0.00,Wunderground v.1.15,2013-02-21 18:02:00,
2013-02-21 13:07:00,59.0,29.9,30.00,SSW,196,1.0,3.0,33,0.00,,,0.00,Wunderground v.1.15,2013-02-21 18:07:00,
2013-02-21 13:13:00,59.0,30.6,30.00,East,85,2.0,3.0,34,0.00,,,0.00,Wunderground v.1.15,2013-02-21 18:13:00,
2013-02-21 13:18:00,59.5,30.3,30.00,East,90,3.0,3.0,33,0.00,,,0.00,Wunderground v.1.15,2013-02-21 18:18:00,
2013-02-21 13:23:00,59.8,31.3,30.00,ESE,121,2.0,3.0,34,0.00,,,0.00,Wunderground v.1.15,2013-02-21 18:23:00,
2013-02-21 13:29:00,59.5,31.1,29.99,SSW,195,3.0,6.0,34,0.00,,,0.00,Wunderground v.1.15,2013-02-21 18:29:00,
2013-02-21 13:34:00,58.3,31.4,29.99,SE,146,4.0,7.0,36,0.00,,,0.00,Wunderground v.1.15,2013-02-21 18:34:00,
2013-02-21 13:40:00,58.7,32.5,29.99,SSE,150,3.0,7.0,37,0.00,,,0.00,Wunderground v.1.15,2013-02-21 18:40:00,
2013-02-21 13:46:00,58.4,31.5,29.99,South,173,3.0,9.0,36,0.00,,,0.00,Wunderground v.1.15,2013-02-21 18:46:00,
2013-02-21 13:52:00,57.6,32.2,29.99,South,185,3.0,5.0,38,0.00,,,0.00,Wunderground v.1.15,2013-02-21 18:52:00,
2013-02-21 13:57:00,57.3,31.2,29.99,SSE,148,3.0,5.0,37,0.00,,,0.00,Wunderground v.1.15,2013-02-21 18:57:00,
2013-02-21 14:03:00,56.7,31.4,29.98,SSE,167,3.0,4.0,38,0.00,,,0.00,Wunderground v.1.15,2013-02-21 19:03:00,
2013-02-21 14:08:00,56.6,30.6,29.98,SSE,153,4.0,6.0,37,0.00,,,0.00,Wunderground v.1.15,2013-02-21 19:08:00,
2013-02-21 14:14:00,56.0,30.7,29.98,SSE,148,3.0,4.0,38,0.00,,,0.00,Wunderground v.1.15,2013-02-21 19:14:00,
2013-02-21 14:20:00,56.3,30.3,29.98,SSE,167,5.0,9.0,37,0.00,,,0.00,Wunderground v.1.15,2013-02-21 19:20:00,
2013-02-21 14:26:00,56.5,30.5,29.98,SSE,152,4.0,7.0,37,0.00,,,0.00,Wunderground v.1.15,2013-02-21 19:26:00,
2013-02-21 14:32:00,57.0,29.6,29.97,South,176,4.0,7.0,35,0.00,,,0.00,Wunderground v.1.15,2013-02-21 19:32:00,
2013-02-21 14:37:00,56.3,30.3,29.97,South,180,5.0,9.0,37,0.00,,,0.00,Wunderground v.1.15,2013-02-21 19:37:00,
2013-02-21 14:43:00,55.9,28.6,29.97,SSW,192,4.0,4.0,35,0.00,,,0.00,Wunderground v.1.15,2013-02-21 19:43:00,
2013-02-21 14:49:00,55.1,30.6,29.97,ESE,123,4.0,8.0,39,0.00,,,0.00,Wunderground v.1.15,2013-02-21 19:49:00,
2013-02-21 14:54:00,56.0,31.4,29.97,South,169,4.0,6.0,39,0.00,,,0.00,Wunderground v.1.15,2013-02-21 19:54:00,
2013-02-21 15:00:00,56.2,30.9,29.96,SSE,159,3.0,7.0,38,0.00,,,0.00,Wunderground v.1.15,2013-02-21 20:00:00,
2013-02-21 15:05:00,56.7,30.7,29.96,South,180,2.0,8.0,37,0.00,,,0.00,Wunderground v.1.15,2013-02-21 20:05:00,
2013-02-21 15:11:00,56.7,31.4,29.96,South,175,3.0,8.0,38,0.00,,,0.00,Wunderground v.1.15,2013-02-21 20:11:00,
2013-02-21 15:17:00,56.7,32.6,29.95,SSE,148,3.0,5.0,40,0.00,,,0.00,Wunderground v.1.15,2013-02-21 20:17:00,
2013-02-21 15:23:00,57.0,32.3,29.95,South,182,4.0,4.0,39,0.00,,,0.00,Wunderground v.1.15,2013-02-21 20:23:00,
2013-02-21 15:29:00,56.5,32.4,29.95,SSE,147,5.0,9.0,40,0.00,,,0.00,Wunderground v.1.15,2013-02-21 20:29:00,
2013-02-21 15:35:00,56.0,33.2,29.95,SSW,198,3.0,4.0,42,0.00,,,0.00,Wunderground v.1.15,2013-02-21 20:35:00,
2013-02-21 15:41:00,56.0,33.2,29.95,SSE,149,2.0,6.0,42,0.00,,,0.00,Wunderground v.1.15,2013-02-21 20:41:00,
2013-02-21 15:46:00,56.6,33.8,29.95,SSE,167,3.0,5.0,42,0.00,,,0.00,Wunderground v.1.15,2013-02-21 20:46:00,
2013-02-21 15:52:00,56.2,32.8,29.95,SSE,167,3.0,3.0,41,0.00,,,0.00,Wunderground v.1.15,2013-02-21 20:52:00,
2013-02-21 15:58:00,56.5,33.1,29.95,SSE,160,2.0,3.0,41,0.00,,,0.00,Wunderground v.1.15,2013-02-21 20:58:00,
2013-02-21 16:04:00,56.6,31.9,29.95,SSW,202,2.0,3.0,39,0.00,,,0.00,Wunderground v.1.15,2013-02-21 21:04:00,
2013-02-21 16:09:00,56.0,33.8,29.95,SSE,149,2.0,3.0,43,0.00,,,0.00,Wunderground v.1.15,2013-02-21 21:09:00,
2013-02-21 16:15:00,56.3,33.5,29.97,SSE,148,1.0,3.0,42,0.00,,,0.00,Wunderground v.1.15,2013-02-21 21:15:00,
2013-02-21 16:21:00,56.9,34.0,29.97,South,174,1.0,3.0,42,0.00,,,0.00,Wunderground v.1.15,2013-02-21 21:21:00,
2013-02-21 16:27:00,56.7,32.6,29.97,SSE,163,2.0,4.0,40,0.00,,,0.00,Wunderground v.1.15,2013-02-21 21:27:00,
2013-02-21 16:32:00,56.7,33.2,29.97,SSE,158,2.0,3.0,41,0.00,,,0.00,Wunderground v.1.15,2013-02-21 21:32:00,
2013-02-21 16:37:00,56.3,34.1,29.97,SSW,196,2.0,3.0,43,0.00,,,0.00,Wunderground v.1.15,2013-02-21 21:37:00,
2013-02-21 16:42:00,55.7,34.7,29.97,SSW,197,2.0,2.0,45,0.00,,,0.00,Wunderground v.1.15,2013-02-21 21:42:00,
2013-02-21 16:47:00,55.4,33.8,29.97,SSW,196,1.0,3.0,44,0.00,,,0.00,Wunderground v.1.15,2013-02-21 21:47:00,
2013-02-21 16:52:00,55.4,34.4,29.97,SSW,193,1.0,3.0,45,0.00,,,0.00,Wunderground v.1.15,2013-02-21 21:52:00,
2013-02-21 16:57:00,55.7,34.7,29.97,South,186,1.0,3.0,45,0.00,,,0.00,Wunderground v.1.15,2013-02-21 21:57:00,
2013-02-21 17:03:00,55.9,34.3,29.97,South,186,0.0,3.0,44,0.00,,,0.00,Wunderground v.1.15,2013-02-21 22:03:00,
2013-02-21 17:08:00,55.9,33.7,29.97,South,186,0.0,3.0,43,0.00,,,0.00,Wunderground v.1.15,2013-02-21 22:08:00,
2013-02-21 17:14:00,55.7,34.7,29.97,South,186,0.0,3.0,45,0.00,,,0.00,Wunderground v.1.15,2013-02-21 22:14:00,
2013-02-21 17:20:00,55.4,33.3,29.97,South,185,1.0,3.0,43,0.00,,,0.00,Wunderground v.1.15,2013-02-21 22:20:00,
2013-02-21 17:25:00,55.3,34.3,29.97,South,185,1.0,3.0,45,0.00,,,0.00,Wunderground v.1.15,2013-02-21 22:25:00,
2013-02-21 17:31:00,54.7,35.4,29.97,South,170,0.0,3.0,48,0.00,,,0.00,Wunderground v.1.15,2013-02-21 22:31:00,
2013-02-21 17:37:00,53.8,35.1,29.97,South,170,1.0,3.0,49,0.00,,,0.00,Wunderground v.1.15,2013-02-21 22:37:00,
2013-02-21 17:43:00,53.3,35.6,29.97,South,170,0.0,3.0,51,0.00,,,0.00,Wunderground v.1.15,2013-02-21 22:43:00,
2013-02-21 17:49:00,52.8,36.6,29.97,South,170,0.0,3.0,54,0.00,,,0.00,Wunderground v.1.15,2013-02-21 22:49:00,
2013-02-21 17:55:00,52.3,36.6,29.97,South,170,0.0,3.0,55,0.00,,,0.00,Wunderground v.1.15,2013-02-21 22:55:00,
2013-02-21 18:01:00,52.0,37.2,29.97,South,170,0.0,3.0,57,0.00,,,0.00,Wunderground v.1.15,2013-02-21 23:01:00,
2013-02-21 18:07:00,51.6,37.3,29.97,South,170,0.0,3.0,58,0.00,,,0.00,Wunderground v.1.15,2013-02-21 23:07:00,
2013-02-21 18:13:00,51.1,37.7,29.97,South,170,0.0,3.0,60,0.00,,,0.00,Wunderground v.1.15,2013-02-21 23:13:00,
2013-02-21 18:19:00,50.5,37.5,29.97,South,170,0.0,3.0,61,0.00,,,0.00,Wunderground v.1.15,2013-02-21 23:19:00,
2013-02-21 18:25:00,50.1,38.0,29.97,South,170,0.0,3.0,63,0.00,,,0.00,Wunderground v.1.15,2013-02-21 23:25:00,
2013-02-21 18:31:00,49.6,37.9,29.98,South,170,0.0,3.0,64,0.00,,,0.00,Wunderground v.1.15,2013-02-21 23:31:00,
2013-02-21 18:37:00,49.2,37.9,29.98,South,170,0.0,3.0,65,0.00,,,0.00,Wunderground v.1.15,2013-02-21 23:37:00,
2013-02-21 18:42:00,48.8,37.9,29.98,South,170,0.0,3.0,66,0.00,,,0.00,Wunderground v.1.15,2013-02-21 23:42:00,
2013-02-21 18:48:00,48.3,37.8,29.98,South,170,0.0,3.0,67,0.00,,,0.00,Wunderground v.1.15,2013-02-21 23:48:00,
2013-02-21 18:53:00,48.0,37.9,29.98,South,170,0.0,3.0,68,0.00,,,0.00,Wunderground v.1.15,2013-02-21 23:53:00,
2013-02-21 18:59:00,47.6,37.9,29.99,South,170,0.0,3.0,69,0.00,,,0.00,Wunderground v.1.15,2013-02-21 23:59:00,
2013-02-21 19:05:00,47.3,38.0,29.99,South,170,0.0,3.0,70,0.00,,,0.00,Wunderground v.1.15,2013-02-22 00:05:00,
2013-02-21 19:10:00,47.1,38.2,29.99,South,170,0.0,3.0,71,0.00,,,0.00,Wunderground v.1.15,2013-02-22 00:10:00,
2013-02-21 19:16:00,46.8,38.2,29.99,South,170,0.0,3.0,72,0.00,,,0.00,Wunderground v.1.15,2013-02-22 00:16:00,
2013-02-21 19:22:00,46.4,38.6,29.99,South,170,0.0,3.0,74,0.00,,,0.00,Wunderground v.1.15,2013-02-22 00:22:00,
2013-02-21 19:28:00,46.0,38.5,30.00,South,170,0.0,3.0,75,0.00,,,0.00,Wunderground v.1.15,2013-02-22 00:28:00,
2013-02-21 19:34:00,45.8,38.3,30.00,South,170,0.0,3.0,75,0.00,,,0.00,Wunderground v.1.15,2013-02-22 00:34:00,
2013-02-21 19:40:00,45.4,38.3,30.00,South,170,0.0,3.0,76,0.00,,,0.00,Wunderground v.1.15,2013-02-22 00:40:00,
2013-02-21 19:45:00,45.2,38.4,30.00,South,170,0.0,3.0,77,0.00,,,0.00,Wunderground v.1.15,2013-02-22 00:45:00,
2013-02-21 19:51:00,44.9,38.1,30.00,South,170,0.0,3.0,77,0.00,,,0.00,Wunderground v.1.15,2013-02-22 00:51:00,
2013-02-21 19:57:00,44.6,38.2,30.00,South,170,0.0,3.0,78,0.00,,,0.00,Wunderground v.1.15,2013-02-22 00:57:00,
2013-02-21 20:02:00,44.5,38.4,30.00,South,170,0.0,3.0,79,0.00,,,0.00,Wunderground v.1.15,2013-02-22 01:02:00,
2013-02-21 20:07:00,44.3,38.2,30.00,South,170,0.0,3.0,79,0.00,,,0.00,Wunderground v.1.15,2013-02-22 01:07:00,
2013-02-21 20:13:00,44.1,38.0,30.00,South,170,0.0,3.0,79,0.00,,,0.00,Wunderground v.1.15,2013-02-22 01:13:00,
2013-02-21 20:19:00,43.8,38.0,30.00,South,170,0.0,3.0,80,0.00,,,0.00,Wunderground v.1.15,2013-02-22 01:19:00,
2013-02-21 20:25:00,43.8,38.3,30.00,South,170,0.0,3.0,81,0.00,,,0.00,Wunderground v.1.15,2013-02-22 01:25:00,
2013-02-21 20:31:00,43.6,38.2,30.01,South,170,0.0,3.0,81,0.00,,,0.00,Wunderground v.1.15,2013-02-22 01:31:00,
2013-02-21 20:37:00,43.3,37.9,30.01,South,170,0.0,3.0,81,0.00,,,0.00,Wunderground v.1.15,2013-02-22 01:37:00,
2013-02-21 20:43:00,43.2,38.1,30.00,South,170,0.0,3.0,82,0.00,,,0.00,Wunderground v.1.15,2013-02-22 01:43:00,
2013-02-21 20:48:00,42.9,37.8,30.00,South,170,0.0,3.0,82,0.00,,,0.00,Wunderground v.1.15,2013-02-22 01:48:00,
2013-02-21 20:54:00,42.8,38.0,30.00,South,170,0.0,3.0,83,0.00,,,0.00,Wunderground v.1.15,2013-02-22 01:54:00,
2013-02-21 21:00:00,42.5,37.7,30.00,South,170,0.0,3.0,83,0.00,,,0.00,Wunderground v.1.15,2013-02-22 02:00:00,
2013-02-21 21:06:00,42.3,37.8,30.00,South,170,0.0,3.0,84,0.00,,,0.00,Wunderground v.1.15,2013-02-22 02:06:00,
2013-02-21 21:11:00,42.3,37.8,30.00,South,170,0.0,3.0,84,0.00,,,0.00,Wunderground v.1.15,2013-02-22 02:11:00,
2013-02-21 21:17:00,42.2,37.7,30.01,South,170,0.0,3.0,84,0.00,,,0.00,Wunderground v.1.15,2013-02-22 02:17:00,
2013-02-21 21:23:00,42.1,37.6,30.01,South,170,0.0,3.0,84,0.00,,,0.00,Wunderground v.1.15,2013-02-22 02:23:00,
2013-02-21 21:29:00,41.9,37.7,30.01,South,170,0.0,3.0,85,0.00,,,0.00,Wunderground v.1.15,2013-02-22 02:29:00,
2013-02-21 21:35:00,41.8,37.6,30.01,South,170,0.0,3.0,85,0.00,,,0.00,Wunderground v.1.15,2013-02-22 02:35:00,
2013-02-21 21:41:00,41.8,37.9,30.01,South,170,0.0,3.0,86,0.00,,,0.00,Wunderground v.1.15,2013-02-22 02:41:00,
2013-02-21 21:47:00,41.6,37.7,30.01,South,170,0.0,3.0,86,0.00,,,0.00,Wunderground v.1.15,2013-02-22 02:47:00,
2013-02-21 21:53:00,41.6,38.0,30.01,South,170,0.0,3.0,87,0.00,,,0.00,Wunderground v.1.15,2013-02-22 02:53:00,
2013-02-21 21:59:00,41.5,37.9,30.00,South,170,0.0,3.0,87,0.00,,,0.00,Wunderground v.1.15,2013-02-22 02:59:00,
2013-02-21 22:05:00,41.5,37.9,30.00,South,170,0.0,3.0,87,0.00,,,0.00,Wunderground v.1.15,2013-02-22 03:05:00,
2013-02-21 22:11:00,41.5,38.2,30.00,South,170,0.0,3.0,88,0.00,,,0.00,Wunderground v.1.15,2013-02-22 03:11:00,
2013-02-21 22:17:00,41.6,38.3,30.02,South,170,0.0,3.0,88,0.00,,,0.00,Wunderground v.1.15,2013-02-22 03:17:00,
2013-02-21 22:23:00,41.8,38.8,30.02,South,170,0.0,3.0,89,0.00,,,0.00,Wunderground v.1.15,2013-02-22 03:23:00,
2013-02-21 22:29:00,41.8,38.8,30.03,South,170,0.0,3.0,89,0.00,,,0.00,Wunderground v.1.15,2013-02-22 03:29:00,
2013-02-21 22:35:00,41.9,38.9,30.03,South,170,0.0,3.0,89,0.00,,,0.00,Wunderground v.1.15,2013-02-22 03:35:00,
2013-02-21 22:41:00,41.9,38.9,30.03,South,170,0.0,3.0,89,0.00,,,0.00,Wunderground v.1.15,2013-02-22 03:41:00,
2013-02-21 22:46:00,42.1,39.1,30.04,South,170,0.0,3.0,89,0.00,,,0.00,Wunderground v.1.15,2013-02-22 03:46:00,
2013-02-21 22:52:00,42.2,39.2,30.04,South,170,0.0,3.0,89,0.00,,,0.00,Wunderground v.1.15,2013-02-22 03:52:00,
2013-02-21 22:58:00,42.3,39.3,30.03,South,170,0.0,3.0,89,0.00,,,0.00,Wunderground v.1.15,2013-02-22 03:58:00,
2013-02-21 23:04:00,42.3,39.3,30.03,South,170,0.0,3.0,89,0.00,,,0.00,Wunderground v.1.15,2013-02-22 04:04:00,
2013-02-21 23:10:00,42.3,39.6,30.03,South,170,0.0,3.0,90,0.00,,,0.00,Wunderground v.1.15,2013-02-22 04:10:00,
2013-02-21 23:16:00,42.5,39.8,30.03,South,169,0.0,3.0,90,0.00,,,0.00,Wunderground v.1.15,2013-02-22 04:16:00,
2013-02-21 23:22:00,42.5,39.8,30.03,South,169,0.0,3.0,90,0.00,,,0.00,Wunderground v.1.15,2013-02-22 04:22:00,
2013-02-21 23:28:00,42.6,39.9,30.04,SSE,167,0.0,3.0,90,0.00,,,0.00,Wunderground v.1.15,2013-02-22 04:28:00,
2013-02-21 23:33:00,42.9,40.2,30.04,SSE,167,0.0,3.0,90,0.00,,,0.00,Wunderground v.1.15,2013-02-22 04:33:00,
2013-02-21 23:39:00,43.1,40.7,30.04,SSE,167,0.0,3.0,91,0.00,,,0.00,Wunderground v.1.15,2013-02-22 04:39:00,
2013-02-21 23:45:00,43.3,40.8,30.03,SSE,167,0.0,3.0,91,0.00,,,0.00,Wunderground v.1.15,2013-02-22 04:45:00,
2013-02-21 23:51:00,43.6,41.1,30.03,SSE,163,0.0,3.0,91,0.00,,,0.00,Wunderground v.1.15,2013-02-22 04:51:00,
2013-02-21 23:57:00,44.1,41.9,30.03,ESE,115,0.0,4.0,92,0.00,,,0.00,Wunderground v.1.15,2013-02-22 04:57:00,